Meteo Giornale » Osservazioni meteo Italia » Resia Pass

ore: 22:55 - Osservazioni Meteo Resia Pass
Lat. 46° 50' N Lon. 10° 30' E Alt. 1800 metri s.l.m.

foschia Europe/Rome

14 °C

Foschia

Temp. 24 Ore

13 °C

15 °C

Sud/Sud-Est

7.4 Km/h

Dew point 14 °C

Umidità 100 %

Visibilità  5 Km

Il sole sorge alle ore 07:03

Il sole tramonta alle ore 19:17

Data e Ora Cielo e Fenomeni T °C DP °C Um. % Pres. hPa Vis. km Vento km/h
Oggi h: 22:55 foschia Foschia 14 14 100 1013 5 S/SE 7.4
Oggi h: 21:55 foschia Foschia 14 13 93 1013 5 N 5.5
Oggi h: 20:55 foschia Foschia 14 13 93 1013 5 N 5.5
Oggi h: 19:55 foschia Foschia 14 13 93 1013 5 S/SO 7.4
Oggi h: 18:55 molto_nuvoloso Molto Nuvoloso 14 13 93 1014 6 S 9.3
Oggi h: 17:55 molto_nuvoloso Molto Nuvoloso 14 13 93 1015 8 S/SE 14.8
Oggi h: 16:55 molto_nuvoloso Molto Nuvoloso 15 12 82 1015 8 S/SE 13
Oggi h: 14:55 molto_nuvoloso Molto Nuvoloso 15 12 82 1016 10 S/SO 11.1
Oggi h: 13:55 molto_nuvoloso Molto Nuvoloso 14 10 76 1016 10 S 13
Oggi h: 12:55 molto_nuvoloso Molto Nuvoloso 13 10 81 1017 10 S 9.3
Oggi h: 11:55 molto_nuvoloso Molto Nuvoloso 13 11 87 1017 8 S 11.1
Oggi h: 10:55 molto_nuvoloso Molto Nuvoloso 13 12 93 1017 8 SE 11.1
Oggi h: 09:55 molto_nuvoloso Molto Nuvoloso 13 13 100 1017 8 S/SE 9.3
Oggi h: 08:55 coperto_pioggia Pioggia Debole 14 14 100 1017 8 S/SE 9.3
Oggi h: 07:55 coperto_pioggia Pioggia Debole 13 13 100 1017 8 S 9.3
Oggi h: 06:55 coperto_pioggia Pioggia Debole 13 13 100 1017 8 N 0
Oggi h: 05:55 coperto_pioggia Pioggia Debole 13 13 100 1017 6 N 0
Oggi h: 04:55 coperto_pioggia Pioggia Debole 13 13 100 1018 6 N 0
Oggi h: 03:55 coperto_pioggia Pioggia Debole 13 13 100 1018 6 N 0
Oggi h: 02:55 coperto_pioggia Pioggia Debole 13 13 100 1018 6 N 0
Oggi h: 01:55 coperto_pioggia Pioggia Debole 14 14 100 1018 7 N 0
Oggi h: 00:55 coperto_pioggia Pioggia Debole 14 14 100 1018 6 N 0